Regional Weather Roundup
Issued by NWS Little Rock, AR

Home | Current Version | Previous Version | Graphics & Text | Print | Product List | Glossary On
Versions: 1 2 3 4 5 6 7 8 9 10 11 12 13 14 15 16 17 18 19 20 21 22 23 24 25 26 27 28 29 30 31 32
000
ASUS44 KLZK 110605
RWRLZK

WEATHER ROUNDUP FOR ARKANSAS
NATIONAL WEATHER SERVICE LITTLE ROCK AR
1200 AM CST MON DEC 11 2017

NOTE: "FAIR" INDICATES FEW OR NO CLOUDS BELOW 12,000 FEET WITH NO
SIGNIFICANT WEATHER AND/OR OBSTRUCTIONS TO VISIBILITY.

ARZ001-003-010-029-110700-
NORTHWEST ARKANSAS

CITY           SKY/WX    TMP DP  RH WIND       PRES   REMARKS
FAYETTEVILLE   CLEAR     33  26  75 VRB5      30.23R WCI  29
6HR MIN TEMP:  29; 6HR MAX TEMP:  50;

FORT SMITH     PTCLDY    44  23  43 SW3       30.23S
6HR MIN TEMP:  39; 6HR MAX TEMP:  55;

HARRISON       CLEAR     48  22  35 W7        30.18F
6HR MIN TEMP:  48; 6HR MAX TEMP:  51;

BENTONVILLE    CLEAR     35  24  64 S5        30.23S WCI  31
6HR MIN TEMP:  35; 6HR MAX TEMP:  49;

ROGERS         CLEAR     41  23  48 SW3       30.21S
6HR MIN TEMP:  40; 6HR MAX TEMP:  50;

SILOAM SPGS    CLEAR     38  22  52 S6        30.22S
6HR MIN TEMP:  37; 6HR MAX TEMP:  50;

HIGHFILL       CLEAR     38  24  57 SW7       30.21S
6HR MIN TEMP:  38; 6HR MAX TEMP:  48;

$$

ARZ004-005-016-110700-
NORTH CENTRAL ARKANSAS

CITY           SKY/WX    TMP DP  RH WIND       PRES   REMARKS
BATESVILLE     CLEAR     45  25  45 CALM      30.19S
6HR MIN TEMP:  44; 6HR MAX TEMP:  55;

FLIPPIN        CLEAR     45  23  42 CALM      30.19S
6HR MIN TEMP:  43; 6HR MAX TEMP:  54;

MTN HOME       CLEAR     43  28  55 CALM      30.17S
6HR MIN TEMP:  42; 6HR MAX TEMP:  54;

$$

ARZ040-041-110700-
WEST CENTRAL ARKANSAS

CITY           SKY/WX    TMP DP  RH WIND       PRES   REMARKS
MENA           CLEAR     50  23  34 CALM      30.23S
MOUNT IDA      CLEAR     37  28  70 CALM      30.20S
6HR MIN TEMP:  37; 6HR MAX TEMP:  57;

$$

ARZ009-017-025-026-028-110700-
NORTHEAST ARKANSAS

CITY           SKY/WX    TMP DP  RH WIND       PRES   REMARKS
CORNING        FAIR      37  28  70 S3        30.17S
JONESBORO      CLEAR     42  30  62 NW3       30.17F
6HR MIN TEMP:  42; 6HR MAX TEMP:  50;

NEWPORT        CLEAR     38  32  79 S6        30.19S
6HR MIN TEMP:  38; 6HR MAX TEMP:  49;

WALNUT RIDGE   CLEAR     37  27  67 S5        30.18S
6HR MIN TEMP:  36; 6HR MAX TEMP:  47;

$$

ARZ022-023-033-042-044-110700-
CENTRAL ARKANSAS

CITY           SKY/WX    TMP DP  RH WIND       PRES   REMARKS
LITTLE ROCK    PTCLDY    38  30  73 W3        30.21S
6HR MIN TEMP:  38; 6HR MAX TEMP:  53;

N LITTLE ROCK    N/A     51  25  36 W3        30.23F
6HR MIN TEMP:  48; 6HR MAX TEMP:  56;

JACKSONVILLE   CLEAR     37  27  66 W3        30.19S
6HR MIN TEMP:  37; 6HR MAX TEMP:  51;

SEARCY         CLEAR     37  29  72 CALM      30.20S
6HR MIN TEMP:  37; 6HR MAX TEMP:  54;

HOT SPRINGS    CLEAR     37  31  78 N3        30.22S
6HR MIN TEMP:  37; 6HR MAX TEMP:  58;

RUSSELLVILLE   CLEAR     33  28  81 CALM      30.21S
6HR MIN TEMP:  33; 6HR MAX TEMP:  54;

CLINTON        FAIR      28  27  93 CALM      30.21S
$$

ARZ036-110700-
EAST ARKANSAS

CITY           SKY/WX    TMP DP  RH WIND       PRES   REMARKS
WEST MEMPHIS   CLEAR     38  32  79 CALM      30.18F
6HR MIN TEMP:  37; 6HR MAX TEMP:  46;

$$

ARZ050-053-066-070-073-110700-
SOUTHWEST ARKANSAS

CITY           SKY/WX    TMP DP  RH WIND       PRES   REMARKS
ARKADELPHIA    FAIR      30  27  88 CALM      30.24S
6HR MIN TEMP:  30; 6HR MAX TEMP:  48;

CAMDEN         CLEAR     43  28  56 SW3       30.24S
TEXARKANA      CLEAR     46  28  49 SW7       30.24F
6HR MIN TEMP:  44; 6HR MAX TEMP:  54;

EL DORADO      CLEAR     39  33  79 CALM      30.24F
6HR MIN TEMP:  37; 6HR MAX TEMP:  52;

DE QUEEN       CLEAR     31  29  92 CALM      30.24S
6HR MIN TEMP:  30; 6HR MAX TEMP:  49;

$$

ARZ056-057-069-110700-
SOUTHEAST ARKANSAS

CITY           SKY/WX    TMP DP  RH WIND       PRES   REMARKS
PINE BLUFF     PTCLDY    45  29  53 SW5       30.22S
6HR MIN TEMP:  41; 6HR MAX TEMP:  53;

STUTTGART      PTCLDY    43  31  62 SW6       30.21S
6HR MIN TEMP:  39; 6HR MAX TEMP:  48;

MONTICELLO     CLEAR     48  29  47 W6        30.23S
6HR MIN TEMP:  48; 6HR MAX TEMP:  54;


$$






USA.gov is the U.S. government's official web portal to all federal, state and local government web resources and services.